Starlink 32005

operational
NORAD ID: 60034 Int'l Des: 2024-111 Owner: SPXS Country: US Constellation: starlink
LEOCIRCULAR

Starlink 32005について

説明を読み込み中...

リアルタイム位置

3D地球を読み込み中...

次回通過

高度履歴

Altitude vs Time

uPlot chart will show altitude changes over time

軌道要素

1 60034U 24111U 25259.16330115 -.00000241 00000-0 39822-5 0 9992
2 60034 53.1592 166.2161 0001156 71.2801 288.8325 15.30192339 72219
Epoch: Sep 16, 2025 • Age: 23 hours

現在のステータス

高度 476.5 km
速度 7.63 km/s
衛星直下点 -3.69°S, 111.4°E
打ち上げ日 Jun 8, 2024
運用期間 1.2 years
タイプ internet

技術仕様

分類 Payload
質量 730.00 kg
乾燥質量 700.00 kg
総質量 730.00 kg
長さ 0.30 m
直径 4.10 m
スパン 29.00 m
形状 Box + pan
製造者 SPXS
バスタイプ Starlink V2M
フェーズステータス In Orbit
所有者/国 SPXS/US

大規模コンステレーション

Loading constellations...